Location: Unspecified
(38.1390°N, 0.0000°E)
Time: 03:03:50
(UTC+00:00)

DX 1 - Visible Passes

Search period start: 04 April 2026 00:00
Search period end: 14 April 2026 00:00
Orbit: 594 x 604 km, 98.4° (Epoch: 29 March)

Date Brightness Start Highest point End Pass type
(mag) Time Alt. Az. Time Alt. Az. Time Alt. Az.
4 Apr ? 02:31:39 10° NNE 02:33:12 21° NE 02:33:12 21° NE visible
4 Apr ? 04:08:30 10° NNW 04:09:56 14° NW 04:09:56 14° NW visible
5 Apr ? 02:42:12 10° NNE 02:44:08 26° NNE 02:44:08 26° NNE visible
5 Apr ? 04:20:00 10° NW 04:20:52 11° NW 04:20:52 11° NW visible
6 Apr ? 02:52:48 10° NNE 02:55:03 31° NNE 02:55:03 31° NNE visible
7 Apr ? 03:03:26 10° N 03:05:58 36° N 03:05:58 36° N visible
8 Apr ? 03:14:08 10° N 03:16:52 38° NNW 03:16:52 38° NNW visible
9 Apr ? 01:50:57 10° ENE 01:51:02 10° ENE 01:51:02 10° ENE visible
9 Apr ? 03:24:52 10° N 03:27:45 36° NNW 03:27:45 36° NNW visible
10 Apr ? 02:00:54 10° NE 02:01:54 14° ENE 02:01:54 14° ENE visible
10 Apr ? 03:35:39 10° N 03:38:38 31° NW 03:38:38 31° NW visible
11 Apr ? 02:11:05 10° NE 02:12:48 18° ENE 02:12:48 18° ENE visible
11 Apr ? 03:46:30 10° NNW 03:49:31 25° WNW 03:49:31 25° WNW visible
12 Apr ? 02:21:24 10° NE 02:23:40 24° ENE 02:23:40 24° ENE visible
12 Apr ? 03:57:25 10° NNW 04:00:23 20° WNW 04:00:23 20° WNW visible
13 Apr ? 02:31:49 10° NNE 02:34:32 32° ENE 02:34:32 32° ENE visible
13 Apr ? 04:08:28 10° NNW 04:11:02 16° WNW 04:11:15 16° WNW visible
